Home   Weather   Clarington   Past weeks

Flag for Canada Past Weather in Clarington, Ontario, Canada — Yesterday and Last 2 Weeks

Now
57 °F

Mostly cloudy.


Feels Like: 55 °F
Forecast: 46 / 54 °F
Wind: 9 mph from South

Location: Peterborough Airport

Current Time: Apr 29, 2017 at 12:01:58 am

Latest Report: Apr 28, 2017 at 11:00 pm


Visibility: 9 mi

Pressure: 29.95 "Hg

Humidity: 63%

Dew Point: 45 °F

Location of ClaringtonLocation

Past Weather in Clarington — Graph

°F

Clarington Temperature Yesterday

Maximum temperature yesterday: 63 °F (at 5:00 pm)
Minimum temperature yesterday: 46 °F (at 6:00 am)
Average temperature yesterday: 56 °F

High & Low Weather Summary for the Past Weeks

 TemperatureHumidityPressure
High77 °F (Apr 27, 1:00 pm)100% (Apr 14, 5:00 am)30.48 "Hg (Apr 14, 5:00 am)
Low27 °F (Apr 14, 6:00 am)20% (Apr 14, 3:00 pm)29.53 "Hg (Apr 27, 7:00 pm)
Average50 °F76%29.99 "Hg
* Reported Apr 13 11:00 pm — Apr 28 11:00 pm, Clarington, Weather by CustomWeather, © 2017

Note: Actual official high and low records may vary slightly from our data, if they occured in-between our weather recording intervals... More about our weather records

Advertising

Clarington Weather History for the Previous 24 Hours

Scroll right to see more
 ConditionsComfort  
Time TempWeatherWind HumidityBarometerVisibility
11:00 pm
Fri, Apr 28
57 °FMostly cloudy.9 mph63%29.95 "Hg9 mi
10:00 pm57 °FOvercast.3 mph51%29.96 "Hg9 mi
9:00 pm59 °FPassing clouds.7 mph48%29.97 "Hg9 mi
8:00 pm59 °FPartly sunny.6 mph51%29.97 "Hg9 mi
7:00 pm61 °FMostly cloudy.10 mph52%29.99 "Hg9 mi
6:00 pm61 °FBroken clouds.15 mph48%29.99 "Hg9 mi
5:00 pm63 °FPartly sunny.12 mph52%29.97 "Hg9 mi
4:00 pm61 °FSunny.14 mph55%29.98 "Hg9 mi
3:00 pm61 °FSunny.16 mph55%29.98 "Hg9 mi
2:00 pm59 °FPassing clouds.13 mph55%29.99 "Hg9 mi
1:00 pm57 °FPassing clouds.15 mph59%29.98 "Hg9 mi
12:00 pm55 °FPartly sunny.16 mph67%29.98 "Hg9 mi
11:00 am55 °FPartly sunny.14 mph63%29.99 "Hg9 mi
10:00 am52 °FOvercast.13 mph67%29.98 "Hg9 mi
9:00 am52 °FOvercast.7 mph67%29.98 "Hg9 mi
8:00 am50 °FOvercast.5 mph82%29.96 "Hg9 mi
7:00 am48 °FOvercast.No wind87%29.92 "Hg9 mi
6:00 am46 °FPassing clouds.2 mph87%29.89 "Hg9 mi
5:00 am50 °FOvercast.6 mph82%29.87 "Hg9 mi
4:00 am48 °FOvercast.6 mph87%29.84 "Hg9 mi
3:00 am50 °FPassing clouds.7 mph82%29.80 "Hg9 mi
2:00 am52 °FPartly cloudy.12 mph82%29.78 "Hg9 mi
1:07 am55 °FPartly cloudy.12 mph82%29.73 "Hg9 mi
1:01 am57 °FPassing clouds.15 mph77%29.73 "Hg9 mi
12:29 am59 °FPartly cloudy.7 mph94%29.70 "Hg9 mi
12:00 am59 °FOvercast.10 mph94%29.68 "Hg9 mi
Weather by CustomWeather, © 2017

See weather overviewHow to use our weather pages